Overview Statistics Trail Chart Weather Telemetry Raw packets
 

This is the latest recevied weather packets stored in our database for station/object SV1JSO-13. If no packets are shown the sender has not sent any weather packets the latest 10 day(s).

<< 88 89 90 91 92 93 94 >>
Time Temp. Humidity Pressure Rain* Wind** Luminosity Snow
1788014700 29.44° C 39% 1009.1 hPa 0 mm - 243 W/m² -
1788014400 28.89° C 39% 1009.1 hPa 0 mm - 256 W/m² -
1788014100 30° C 37% 1009.1 hPa 0 mm - 269 W/m² -
1788013800 30° C 37% 1009.1 hPa 0 mm - 281 W/m² -
1788013500 30.56° C 37% 1009.1 hPa 0 mm - 288 W/m² -
1788013200 30° C 37% 1009.1 hPa 0 mm - 296 W/m² -
1788012900 30.56° C 37% 1009.1 hPa 0 mm - 313 W/m² -
1788012600 30° C 37% 1009.1 hPa 0 mm - 323 W/m² -
1788012300 30° C 37% 1009.1 hPa 0 mm - 335 W/m² -
1788012000 30.56° C 36% 1009.2 hPa 0 mm - 352 W/m² -
1788011700 30.56° C 36% 1009.3 hPa 0 mm - 366 W/m² -
1788011400 30.56° C 37% 1009.3 hPa 0 mm - 380 W/m² -
1788011100 30° C 38% 1009.2 hPa 0 mm - 390 W/m² -
1788010800 30.56° C 37% 1009.3 hPa 0 mm - 407 W/m² -
1788010500 30.56° C 37% 1009.3 hPa 0 mm - 421 W/m² -
1788010214 30.56° C 37% 1009.2 hPa 0 mm - 430 W/m² -
1788009900 30.56° C 37% 1009.2 hPa 0 mm - 445 W/m² -
1788009600 30.56° C 37% 1009.2 hPa 0 mm - 457 W/m² -
1788009300 30.56° C 37% 1009.3 hPa 0 mm - 469 W/m² -
1788009001 30.56° C 37% 1009.4 hPa 0 mm - 477 W/m² -
1788008700 31.11° C 36% 1009.5 hPa 0 mm - 497 W/m² -
1788008400 30° C 38% 1009.6 hPa 0 mm - 503 W/m² -
1788008109 29.44° C 39% 1009.6 hPa 0 mm - 520 W/m² -
1788007800 29.44° C 40% 1009.7 hPa 0 mm - 528 W/m² -
1788007500 30° C 39% 1009.7 hPa 0 mm - 537 W/m² -

* Rain latest hour (hover to see other rain measurements)
** Current wind speed in m/s (hover to see current wind gust speed)